Wind_Speed
6 6 6 5 5 5 6 5 5 4 4 4 4 4 5 6 6 8 9 9 9 10 10 11 11 12 12 12 12 12 13 13 14 15 15 16 16 17 19 20 21 22 22
3 3 3 3 4 4 4 4 4 4 3 3 3 4 4 5 6 7 8 9 9 9 10 11 11 11 12 12 12 12 12 13 13 14 14 15 16 17 18 19 20 21 22
4 2 2 2 3 4 4 4 4 3 3 2 2 3 4 5 6 7 8 8 9 10 11 11 12 12 12 12 13 13 13 13 13 14 14 15 15 16 17 18 19 20 22
4 3 3 3 3 3 3 4 3 2 2 2 2 3 4 5 5 6 8 9 10 11 12 12 12 13 13 13 14 14 15 15 15 15 15 16 16 17 17 18 19 20 22
3 3 3 4 3 3 3 3 3 2 1 1 2 3 4 5 6 7 9 10 11 12 13 13 13 14 15 15 15 15 15 16 17 17 17 18 18 19 20 20 20 21 23
4 4 4 4 4 3 3 3 3 2 1 1 2 3 5 6 7 8 9 10 12 13 14 15 15 15 16 16 16 17 17 18 18 19 20 20 20 21 22 23 24 24 24
5 4 4 4 3 3 3 3 3 2 2 2 4 5 6 8 9 10 11 12 13 14 15 16 16 17 17 17 18 19 19 20 21 22 22 23 23 24 24 25 26 27 28
4 3 3 2 2 3 3 3 3 2 3 4 5 6 8 9 10 12 13 13 14 14 15 16 17 18 18 19 20 21 22 23 24 24 25 26 27 27 27 28 28 29 31
2 2 1 2 3 3 4 4 4 4 5 6 7 8 9 10 11 13 14 15 15 16 17 17 18 19 20 21 22 23 25 25 26 27 28 28 29 29 30 31 31 32 33
1 1 1 2 3 3 4 4 5 5 6 7 9 10 11 12 13 14 15 16 17 18 19 20 21 21 22 23 24 25 26 27 28 29 30 31 32 33 34 35 35 35 36
1 1 2 3 4 5 5 6 6 7 8 9 11 12 13 14 15 16 17 18 19 20 21 22 23 24 25 26 27 28 29 31 32 32 33 34 34 35 36 37 38 38 38
3 3 3 4 5 6 7 8 9 10 11 12 14 15 16 17 18 18 19 20 21 22 23 24 25 26 27 28 30 32 33 34 35 35 35 35 36 37 37 38 38 39 39
6 6 6 6 7 8 9 10 12 13 14 16 17 17 19 19 20 21 21 22 23 24 25 27 28 29 30 31 33 35 36 36 36 36 37 37 38 38 38 38 38 38 38
9 8 8 9 10 10 11 12 14 15 17 18 19 20 21 22 22 23 24 25 26 26 28 29 30 31 32 34 35 37 38 37 37 38 38 39 39 39 39 38 38 37 37
12 11 11 12 12 13 14 15 16 17 19 20 21 22 23 24 25 25 26 27 27 29 30 31 32 33 34 35 37 38 39 39 39 39 40 40 40 40 39 38 37 37 36
14 13 14 14 15 16 17 17 18 19 21 22 24 25 26 27 27 28 29 29 30 31 32 33 35 36 37 38 38 38 39 40 40 40 41 40 40 40 39 38 36 36 35
15 14 14 15 16 18 20 21 21 22 23 25 26 28 29 29 30 30 31 32 33 34 35 36 37 38 39 39 39 39 40 40 41 41 41 41 41 40 39 37 36 35 35
16 16 17 19 20 21 22 23 24 25 26 28 29 30 31 31 32 32 33 34 35 36 37 38 39 40 41 41 41 41 41 41 42 42 42 42 41 40 39 37 35 34 34
19 20 22 23 23 24 24 25 27 28 29 31 32 32 33 33 34 35 35 36 37 39 39 40 41 42 42 42 42 42 42 42 42 43 43 42 41 40 39 37 35 34 34
24 25 25 26 26 27 27 28 29 31 32 33 34 34 35 36 37 37 38 39 40 41 42 42 43 43 44 44 43 43 43 43 43 43 43 42 40 39 38 37 35 34 33
27 27 28 29 30 31 31 32 32 33 34 35 35 36 38 38 39 40 42 43 43 44 44 44 45 46 46 45 45 45 45 45 44 44 43 41 40 38 37 36 35 34 33
29 30 31 32 33 34 35 35 36 36 37 37 38 39 40 41 42 43 44 45 46 47 47 47 47 47 47 47 46 46 46 46 45 44 42 41 40 38 37 36 35 34 33
31 32 33 34 35 36 37 37 38 38 39 40 41 42 43 44 45 46 47 48 49 49 50 50 50 49 49 49 48 48 48 47 46 43 42 41 39 38 36 35 35 34 32
33 34 35 36 37 37 38 39 40 41 42 43 44 46 47 48 49 50 50 51 51 52 52 52 52 51 50 49 49 49 49 48 46 44 42 41 39 37 36 35 34 33 32
34 35 36 37 38 39 40 41 43 44 45 46 47 48 50 51 52 52 53 53 54 54 54 54 53 53 51 51 52 51 50 48 46 44 42 40 38 36 35 34 32 31 31
35 36 38 39 40 41 42 43 44 46 47 48 50 51 52 53 54 55 55 55 56 56 56 56 56 55 54 54 53 52 50 48 46 43 41 39 38 36 35 33 32 31 30
Wind_Direction
183 192 208 224 233 240 252 263 258 265 280 291 305 316 315 314 317 318 319 320 321 321 320 319 318 315 313 310 308 304 300 296 293 289 284 281 277 272 268 264 262 260 256
170 184 208 211 220 229 235 246 252 262 273 283 302 314 318 319 322 323 324 326 325 323 323 323 321 317 315 313 311 309 307 304 300 295 289 285 280 276 272 268 265 262 259
160 166 180 206 201 212 225 233 241 243 260 276 299 320 327 327 327 325 325 326 327 328 327 325 324 322 320 316 312 310 309 306 303 298 295 291 287 282 277 273 269 265 262
141 155 165 170 176 193 211 212 207 231 241 271 308 328 332 331 329 330 331 330 329 329 328 327 325 324 322 319 315 311 308 305 302 298 294 292 289 286 282 277 273 269 266
128 148 157 160 167 175 186 196 206 216 232 280 314 336 342 340 337 337 337 334 331 330 331 332 329 326 322 319 316 314 310 307 304 300 295 291 288 286 283 280 275 272 269
106 129 138 151 163 175 192 201 197 201 231 286 318 336 342 342 341 340 339 337 335 333 332 332 329 327 324 321 317 315 312 310 307 303 299 295 291 287 283 281 278 275 271
94 117 136 146 162 182 195 197 202 217 259 299 317 328 335 337 337 337 337 336 335 333 332 330 328 326 324 321 318 316 315 312 309 306 301 297 293 290 286 281 278 276 273
84 109 130 152 181 203 214 222 232 257 283 300 313 324 330 332 333 333 333 332 331 330 328 327 326 325 323 320 317 315 314 312 311 308 304 300 296 292 287 283 279 275 273
91 113 160 184 199 215 229 241 256 270 285 298 311 320 324 326 328 329 329 329 327 326 325 323 322 322 321 319 317 315 314 313 311 309 306 303 300 296 292 286 281 277 273
109 219 230 230 239 247 252 260 269 278 290 302 311 315 317 320 321 323 324 323 323 322 321 320 318 317 317 317 316 315 314 314 312 310 307 305 303 299 295 290 286 280 275
267 253 251 257 260 266 271 276 283 289 296 301 306 310 312 313 315 316 318 318 318 317 316 316 315 314 314 314 314 314 313 312 311 310 308 306 304 301 298 294 289 284 279
312 290 273 271 275 282 286 290 294 298 300 301 303 306 307 308 309 311 312 313 313 311 311 312 312 312 312 312 313 312 312 311 310 310 309 308 306 304 301 297 292 288 283
314 303 295 289 289 293 295 297 299 300 300 300 301 302 303 304 306 307 308 308 309 308 309 310 310 310 310 310 311 312 311 311 310 310 309 308 308 306 303 299 295 290 286
315 309 302 298 295 295 296 298 298 299 298 297 297 298 299 300 302 303 304 305 306 307 308 309 309 308 308 309 310 312 312 310 310 310 310 310 308 307 304 300 296 291 286
313 310 306 301 297 295 295 295 295 295 294 294 294 294 295 297 299 300 301 302 303 304 306 307 308 308 309 310 310 311 311 310 309 309 310 310 309 307 303 300 296 292 287
307 305 302 297 295 294 293 293 293 292 292 292 291 292 293 295 296 297 298 300 301 302 304 306 307 308 309 310 310 310 310 309 309 309 309 310 309 307 303 300 296 291 286
297 296 295 294 292 293 294 293 293 293 292 292 292 292 293 294 295 296 298 299 301 303 305 306 306 307 307 309 310 309 310 310 309 309 309 309 309 306 303 299 295 291 286
290 291 294 294 293 294 294 294 294 294 293 293 293 292 292 293 294 295 297 299 300 302 303 305 306 306 306 307 308 309 310 310 310 310 309 309 307 305 302 298 295 291 287
290 291 292 292 290 291 292 293 294 294 293 292 293 293 292 294 294 294 296 298 299 301 302 304 305 306 306 306 307 308 310 310 310 309 308 308 306 303 301 297 293 290 286
291 293 292 291 290 291 291 291 291 292 291 291 292 293 293 294 294 295 295 297 298 300 301 302 304 304 305 305 306 307 309 309 309 308 307 305 303 301 299 295 292 289 286
291 292 292 292 292 292 292 291 291 290 290 290 290 291 292 292 293 294 295 295 297 298 300 302 302 303 303 304 305 305 307 308 308 307 306 304 302 300 297 294 292 289 286
292 292 292 291 291 291 290 290 290 290 290 290 290 291 291 291 292 293 295 295 296 297 299 300 301 301 302 302 303 303 305 306 306 305 303 302 301 299 297 294 292 289 286
290 290 290 289 289 289 289 289 289 289 290 290 290 291 291 292 292 293 293 294 295 296 297 298 299 299 299 300 300 302 303 304 303 302 300 300 299 297 295 294 292 289 285
289 289 288 288 288 289 289 289 289 289 289 289 289 290 291 291 291 292 292 293 294 295 295 296 296 296 297 297 297 299 300 300 299 298 298 297 296 295 294 293 291 289 285
289 289 288 288 288 288 288 288 288 288 289 289 289 289 289 290 290 290 291 292 293 293 293 294 294 294 294 294 294 296 296 296 295 295 294 294 294 293 292 291 290 288 286
291 290 290 290 290 290 289 289 290 289 289 290 290 289 289 290 290 290 290 291 291 291 291 292 291 291 292 291 292 292 292 291 291 290 290 290 290 290 290 290 289 287 285
Height
5861 5863 5865 5868 5870 5872 5873 5874 5874 5875 5875 5875 5875 5874 5874 5873 5872 5870 5869 5868 5867 5865 5864 5862 5860 5859 5857 5856 5855 5853 5852 5851 5850 5849 5848 5848 5847 5847 5847 5847 5847 5848 5849
5860 5861 5863 5865 5868 5870 5871 5873 5873 5874 5874 5874 5873 5873 5872 5871 5870 5869 5867 5866 5864 5863 5861 5860 5858 5856 5854 5853 5851 5850 5849 5847 5846 5845 5844 5844 5844 5843 5842 5842 5842 5843 5844
5860 5862 5863 5865 5866 5868 5870 5871 5872 5872 5873 5873 5872 5871 5871 5870 5869 5867 5866 5864 5862 5860 5859 5857 5855 5853 5852 5850 5848 5847 5845 5844 5843 5842 5841 5840 5839 5838 5838 5838 5837 5837 5838
5861 5862 5863 5864 5866 5867 5869 5870 5871 5871 5871 5871 5871 5870 5869 5868 5867 5865 5863 5862 5860 5858 5856 5854 5852 5850 5848 5847 5845 5843 5842 5840 5839 5838 5837 5836 5835 5834 5833 5833 5832 5832 5832
5861 5862 5863 5865 5866 5867 5868 5869 5870 5870 5870 5870 5869 5868 5868 5866 5865 5863 5861 5860 5857 5855 5853 5851 5849 5847 5845 5843 5841 5840 5838 5836 5835 5833 5832 5831 5830 5829 5828 5828 5827 5827 5826
5862 5863 5864 5865 5866 5867 5867 5868 5868 5869 5868 5868 5867 5867 5866 5864 5863 5861 5859 5857 5855 5853 5850 5848 5846 5844 5842 5840 5838 5836 5834 5832 5830 5828 5827 5826 5825 5824 5822 5821 5821 5820 5820
5863 5864 5865 5865 5866 5866 5867 5868 5868 5867 5867 5866 5866 5865 5863 5862 5860 5858 5856 5854 5852 5850 5847 5845 5843 5841 5838 5836 5834 5832 5829 5827 5825 5823 5821 5819 5818 5817 5816 5815 5813 5812 5812
5864 5865 5865 5865 5865 5866 5866 5866 5866 5866 5865 5864 5863 5862 5861 5859 5858 5855 5853 5851 5849 5847 5844 5842 5840 5837 5835 5832 5830 5827 5824 5822 5819 5817 5815 5812 5810 5809 5807 5806 5805 5804 5803
5864 5864 5865 5865 5865 5865 5865 5865 5864 5864 5863 5862 5861 5860 5858 5856 5854 5852 5850 5848 5846 5843 5841 5839 5836 5833 5831 5828 5825 5822 5819 5816 5813 5810 5807 5805 5802 5800 5798 5797 5796 5795 5794
5863 5863 5863 5863 5863 5863 5863 5862 5862 5861 5860 5859 5858 5856 5855 5853 5851 5849 5847 5844 5842 5839 5837 5834 5832 5829 5826 5823 5819 5816 5813 5810 5806 5803 5800 5797 5794 5791 5788 5786 5784 5783 5783
5862 5861 5861 5861 5861 5861 5860 5860 5859 5858 5857 5856 5854 5853 5851 5849 5847 5845 5842 5840 5837 5835 5832 5829 5826 5823 5820 5817 5813 5810 5806 5803 5799 5796 5792 5788 5785 5781 5778 5775 5772 5770 5769
5859 5859 5859 5858 5858 5857 5857 5856 5855 5854 5853 5852 5850 5849 5847 5845 5842 5840 5837 5835 5832 5829 5826 5823 5820 5817 5814 5810 5807 5803 5799 5795 5791 5787 5783 5779 5775 5771 5767 5763 5760 5757 5755
5855 5855 5855 5855 5854 5854 5853 5852 5851 5850 5849 5847 5846 5844 5842 5840 5837 5835 5832 5829 5826 5823 5820 5817 5814 5810 5807 5803 5799 5795 5791 5786 5782 5778 5773 5769 5764 5760 5756 5752 5748 5745 5742
5851 5851 5850 5850 5850 5849 5849 5848 5846 5845 5844 5842 5840 5839 5836 5834 5831 5828 5826 5823 5820 5817 5814 5810 5806 5803 5799 5795 5791 5787 5782 5777 5772 5768 5763 5758 5754 5749 5744 5740 5736 5733 5730
5846 5846 5846 5845 5845 5844 5843 5843 5841 5840 5839 5837 5835 5833 5830 5828 5825 5822 5819 5816 5813 5809 5806 5802 5798 5794 5791 5787 5782 5778 5773 5768 5763 5758 5753 5748 5743 5738 5733 5729 5725 5721 5719
5842 5842 5841 5840 5840 5839 5838 5837 5836 5835 5833 5831 5828 5826 5823 5821 5818 5814 5811 5808 5804 5801 5798 5794 5790 5786 5782 5777 5773 5768 5763 5758 5753 5748 5742 5737 5732 5727 5722 5718 5714 5710 5707
5838 5837 5837 5836 5835 5833 5832 5831 5829 5828 5826 5824 5821 5819 5816 5813 5810 5806 5803 5800 5796 5792 5789 5785 5781 5776 5772 5767 5763 5758 5753 5748 5742 5737 5732 5726 5721 5716 5711 5707 5703 5699 5696
5833 5832 5831 5830 5829 5827 5826 5824 5822 5820 5818 5815 5813 5810 5808 5804 5801 5798 5794 5791 5787 5783 5779 5775 5771 5766 5761 5757 5752 5747 5742 5737 5731 5726 5721 5715 5710 5705 5700 5696 5693 5689 5686
5827 5826 5825 5824 5822 5820 5818 5817 5815 5812 5809 5807 5804 5801 5798 5795 5792 5788 5785 5781 5777 5773 5769 5765 5760 5756 5751 5746 5741 5736 5731 5726 5720 5715 5709 5704 5699 5694 5689 5686 5682 5679 5675
5820 5819 5817 5816 5815 5813 5811 5809 5806 5804 5801 5798 5795 5792 5788 5785 5782 5778 5774 5770 5767 5763 5758 5754 5749 5745 5740 5734 5729 5724 5720 5714 5709 5703 5698 5693 5688 5683 5678 5675 5672 5668 5665
5812 5810 5809 5807 5805 5803 5801 5799 5797 5794 5791 5788 5786 5782 5778 5775 5771 5767 5763 5759 5755 5751 5747 5742 5738 5732 5728 5723 5717 5712 5707 5702 5697 5692 5686 5681 5676 5672 5668 5664 5661 5658 5655
5803 5801 5799 5797 5795 5793 5791 5789 5786 5783 5781 5778 5775 5771 5767 5763 5759 5755 5751 5746 5742 5738 5734 5729 5725 5720 5715 5710 5705 5700 5695 5690 5685 5680 5675 5670 5665 5661 5657 5653 5650 5647 5644
5794 5792 5790 5787 5785 5783 5780 5778 5775 5771 5768 5765 5762 5758 5754 5750 5746 5742 5738 5733 5729 5724 5720 5715 5711 5707 5701 5696 5692 5687 5682 5677 5672 5668 5663 5658 5654 5650 5646 5643 5639 5636 5633
5785 5782 5780 5777 5775 5772 5769 5766 5763 5759 5756 5752 5748 5744 5740 5736 5732 5727 5723 5719 5714 5709 5705 5701 5696 5692 5688 5683 5678 5673 5669 5664 5660 5655 5651 5647 5643 5639 5635 5632 5628 5625 5623
5775 5772 5769 5767 5764 5760 5757 5753 5750 5747 5743 5739 5735 5731 5726 5722 5717 5713 5708 5704 5700 5694 5689 5685 5681 5676 5673 5668 5663 5659 5655 5650 5646 5642 5638 5634 5631 5628 5625 5621 5618 5615 5613
5764 5761 5758 5755 5751 5748 5744 5741 5737 5733 5729 5724 5720 5715 5711 5706 5701 5697 5693 5688 5683 5678 5673 5668 5664 5660 5656 5652 5648 5644 5639 5636 5632 5629 5626 5622 5619 5616 5614 5611 5608 5605 5602